User: anonymous   Login
Location: Albany
(35.0000°S, 118.0000°E)
Time: 10:45:36
(UTC-04:00)
Language:

Cosmos 1933 - Orbit

View from above orbital plane
View from above orbital plane
View from above satellite
View from above satellite

Ground track
Ground track

The orbit data is extracted from the following two-line orbital elements,

1 18958U 88020A   15238.86737198 +.00001024 +00000-0 +75278-4 0  9997
2 18958 082.5305 020.6489 0012244 015.1149 345.0440 15.02341554492352
Epoch (UTC): 26 August 2015 20:49:00
Eccentricity: 0.0012244
inclination: 82.5305°
perigee height: 551 km
apogee height: 568 km
right ascension of ascending node: 20.6489°
argument of perigee: 15.1149°
revolutions per day: 15.02341554
mean anomaly at epoch: 345.0440°
orbit number at epoch: 49235

The dashed part of the orbit path shows where the satellite is in the earth's shadow,  

DLR